GW3919 Weather Reports


Display with metric or nautical units.
time (UTC)temp
F
wind
direction
speed
MPH
gust
MPH
rain 1hr
in
rain 24hr
in
rain mn
in
humidity
%
barometer
mb
20260901164731 94 142 4.0 6.0 0.00 0.00 0.00 55 1017.7
20260901164227 96 102 1.0 5.0 0.00 0.00 0.00 52 1017.6
20260901163722 97 284 0.0 4.0 0.00 0.00 0.00 52 1017.9
20260901163221 95 284 1.0 4.0 0.00 0.00 0.00 54 1017.9
20260901162716 95 250 3.0 3.0 0.00 0.00 0.00 53 1017.7
20260901162215 97 267 3.0 7.0 0.00 0.00 0.00 52 1017.8
20260901161714 96 306 0.0 3.0 0.00 0.00 0.00 54 1017.6
20260901161209 97 263 0.0 3.0 0.00 0.00 0.00 53 1017.6
20260901160706 95 145 2.0 5.0 0.00 0.00 0.00 55 1017.7
20260901160201 95 329 1.0 6.0 0.00 0.00 0.00 56 1017.7
20260901155659 94 195 4.0 5.0 0.00 0.00 0.00 56 1017.7
20260901155155 93 206 2.0 5.0 0.00 0.00 0.00 57 1017.6
20260901154650 94 305 3.0 4.0 0.00 0.00 0.00 56 1017.7
20260901154144 94 66 2.0 2.0 0.00 0.00 0.00 57 1017.6
20260901153640 95 267 2.0 4.0 0.00 0.00 0.00 56 1017.7
20260901153133 95 268 2.0 2.0 0.00 0.00 0.00 57 1017.6
20260901152628 93 315 0.0 4.0 0.00 0.00 0.00 58 1017.7
20260901152126 93 146 0.0 3.0 0.00 0.00 0.00 59 1017.6
20260901151623 93 126 5.0 6.0 0.00 0.00 0.00 59 1017.7
20260901151122 93 334 4.0 4.0 0.00 0.00 0.00 59 1017.7
20260901150615 92 326 1.0 2.0 0.00 0.00 0.00 60 1017.8
20260901150113 91 340 2.0 4.0 0.00 0.00 0.00 62 1017.6
20260901145607 91 72 2.0 4.0 0.00 0.00 0.00 62 1017.8
20260901145106 91 267 1.0 2.0 0.00 0.00 0.00 62 1018.0
20260901144602 91 262 2.0 3.0 0.00 0.00 0.00 62 1017.9
20260901144057 91 273 0.0 3.0 0.00 0.00 0.00 62 1017.8
20260901143552 91 74 1.0 2.0 0.00 0.00 0.00 63 1017.8
20260901143049 91 264 0.0 4.0 0.00 0.00 0.00 64 1017.8
20260901142544 89 252 2.0 2.0 0.00 0.00 0.00 66 1017.9
20260901142043 89 191 0.0 3.0 0.00 0.00 0.00 65 1017.8
20260901141538 90 91 2.0 2.0 0.00 0.00 0.00 65 1017.9
20260901141033 90 228 2.0 2.0 0.00 0.00 0.00 64 1017.7
20260901140532 89 209 0.0 1.0 0.00 0.00 0.00 65 1017.6
20260901140027 89 275 0.0 4.0 0.00 0.00 0.00 66 1017.9
20260901135525 90 240 1.0 2.0 0.00 0.00 0.00 65 1017.9
20260901135021 89 215 0.0 2.0 0.00 0.00 0.00 67 1017.8
20260901134518 90 327 2.0 2.0 0.00 0.00 0.00 65 1018.1
20260901134012 88 246 2.0 2.0 0.00 0.00 0.00 67 1017.9
20260901133511 87 283 1.0 3.0 0.00 0.00 0.00 67 1017.7
20260901133009 88 250 0.0 2.0 0.00 0.00 0.00 66 1017.8
20260901132509 89 281 1.0 2.0 0.00 0.00 0.00 65 1017.9
20260901132009 87 127 0.0 1.0 0.00 0.00 0.00 68 1017.9
20260901131503 86 330 1.0 2.0 0.00 0.00 0.00 69 1017.8
20260901130959 86 249 0.0 2.0 0.00 0.00 0.00 69 1017.8
20260901130453 85 257 0.0 2.0 0.00 0.00 0.00 70 1017.6
20260901125951 85 258 2.0 4.0 0.00 0.00 0.00 70 1017.7
20260901125450 83 224 0.0 2.0 0.00 0.00 0.00 72 1017.6
20260901124945 82 144 1.0 1.0 0.00 0.00 0.00 74 1017.4
20260901124440 82 219 2.0 2.0 0.00 0.00 0.00 75 1017.4
20260901123935 81 279 0.0 2.0 0.00 0.00 0.00 76 1017.3
20260901123430 81 296 0.0 2.0 0.00 0.00 0.00 76 1017.2
20260901122928 80 275 1.0 2.0 0.00 0.00 0.00 77 1017.3
20260901122428 80 269 0.0 2.0 0.00 0.00 0.00 78 1017.1
20260901121927 79 124 0.0 1.0 0.00 0.00 0.00 79 1016.8
20260901121422 79 214 1.0 2.0 0.00 0.00 0.00 79 1016.9
20260901120918 79 192 0.0 2.0 0.00 0.00 0.00 79 1016.8
20260901120417 79 242 0.0 1.0 0.00 0.00 0.00 78 1017.0
20260901115913 80 214 0.0 1.0 0.00 0.00 0.00 78 1016.6
20260901115413 80 246 0.0 0.0 0.00 0.00 0.00 77 1016.8
20260901114911 80 225 0.0 2.0 0.00 0.00 0.00 77 1016.7
20260901114406 80 62 0.0 0.0 0.00 0.00 0.00 77 1016.6
20260901113904 80 255 0.0 0.0 0.00 0.00 0.00 76 1016.6
20260901113403 80 215 0.0 2.0 0.00 0.00 0.00 76 1016.5
20260901112859 81 25 0.0 1.0 0.00 0.00 0.00 75 1016.5
20260901112354 81 265 0.0 2.0 0.00 0.00 0.00 75 1016.5
20260901111848 81 307 0.0 2.0 0.00 0.00 0.00 75 1016.7
20260901111347 81 325 0.0 2.0 0.00 0.00 0.00 74 1016.7
20260901110845 81 157 0.0 1.0 0.00 0.00 0.00 74 1016.4
20260901110341 81 324 1.0 1.0 0.00 0.00 0.00 74 1016.2
20260901105837 81 294 1.0 1.0 0.00 0.00 0.00 74 1016.4
20260901105332 81 284 0.0 0.0 0.00 0.00 0.00 74 1016.5
20260901104829 81 217 0.0 1.0 0.00 0.00 0.00 74 1016.4
20260901104324 81 257 0.0 1.0 0.00 0.00 0.00 73 1016.3
20260901103819 81 269 0.0 1.0 0.00 0.00 0.00 73 1016.4
20260901103319 81 277 0.0 1.0 0.00 0.00 0.00 72 1016.3
20260901102814 82 269 0.0 0.0 0.00 0.00 0.00 72 1016.5
20260901102308 82 310 0.0 1.0 0.00 0.00 0.00 72 1016.4
20260901101803 82 279 0.0 1.0 0.00 0.00 0.00 72 1016.5
20260901101258 82 236 1.0 1.0 0.00 0.00 0.00 71 1016.5
20260901100757 82 204 1.0 1.0 0.00 0.00 0.00 71 1016.5
20260901100252 82 229 0.0 1.0 0.00 0.00 0.00 71 1016.3
20260901095750 82 164 0.0 0.0 0.00 0.00 0.00 71 1016.4
20260901095248 82 249 0.0 1.0 0.00 0.00 0.00 70 1016.5
20260901094743 82 245 0.0 1.0 0.00 0.00 0.00 70 1016.6
20260901094238 82 309 0.0 1.0 0.00 0.00 0.00 69 1016.4
20260901093733 82 297 0.0 1.0 0.00 0.00 0.00 69 1016.5
20260901093232 82 304 0.0 0.0 0.00 0.00 0.00 69 1016.5
20260901092728 82 233 0.0 0.0 0.00 0.00 0.00 69 1016.4
20260901092224 82 333 0.0 0.0 0.00 0.00 0.00 69 1016.4
20260901091719 83 230 0.0 0.0 0.00 0.00 0.00 68 1016.5
20260901091214 83 231 0.0 1.0 0.00 0.00 0.00 68 1016.6
20260901090709 83 277 1.0 1.0 0.00 0.00 0.00 68 1016.4
20260901090204 83 222 0.0 1.0 0.00 0.00 0.00 68 1016.4
20260901085700 83 284 0.0 0.0 0.00 0.00 0.00 67 1016.4
20260901085155 83 244 0.0 1.0 0.00 0.00 0.00 67 1016.4
20260901084652 83 289 0.0 1.0 0.00 0.00 0.00 67 1016.3
20260901084148 83 315 0.0 2.0 0.00 0.00 0.00 67 1016.5
20260901083647 83 227 1.0 2.0 0.00 0.00 0.00 67 1016.1
20260901083146 84 246 1.0 2.0 0.00 0.00 0.00 66 1016.1
20260901082640 84 275 0.0 1.0 0.00 0.00 0.00 66 1016.0
20260901082136 84 303 0.0 2.0 0.00 0.00 0.00 66 1016.0
20260901081631 84 269 0.0 1.0 0.00 0.00 0.00 66 1016.3
20260901081125 84 255 0.0 1.0 0.00 0.00 0.00 65 1016.2
20260901080620 84 321 0.0 2.0 0.00 0.00 0.00 65 1016.3
20260901080119 84 240 0.0 2.0 0.00 0.00 0.00 65 1016.2
20260901075614 84 250 1.0 2.0 0.00 0.00 0.00 64 1016.2
20260901075114 84 228 0.0 2.0 0.00 0.00 0.00 64 1016.3
20260901074613 84 269 0.0 2.0 0.00 0.00 0.00 64 1016.2
20260901074108 84 89 0.0 2.0 0.00 0.00 0.00 63 1016.2
20260901073605 84 211 0.0 2.0 0.00 0.00 0.00 63 1016.3
20260901073059 85 293 1.0 1.0 0.00 0.00 0.00 62 1016.1
20260901072555 85 269 0.0 2.0 0.00 0.00 0.00 62 1016.1
20260901072049 85 268 0.0 2.0 0.00 0.00 0.00 61 1016.2
20260901071544 85 239 1.0 2.0 0.00 0.00 0.00 61 1016.3
20260901071042 85 281 1.0 3.0 0.00 0.00 0.00 61 1015.9
20260901070538 86 279 2.0 4.0 0.00 0.00 0.00 61 1015.8
20260901070033 86 268 2.0 2.0 0.00 0.00 0.00 61 1015.8
20260901065527 86 317 1.0 4.0 0.00 0.00 0.00 60 1016.0
20260901065022 86 309 0.0 2.0 0.00 0.00 0.00 60 1016.2
20260901064519 86 260 2.0 2.0 0.00 0.00 0.00 60 1016.1
20260901064015 86 288 0.0 1.0 0.00 0.00 0.00 60 1016.0
20260901063512 86 301 2.0 3.0 0.00 0.00 0.00 60 1015.9
20260901063008 86 297 0.0 1.0 0.00 0.00 0.00 59 1015.9
20260901062503 86 300 4.0 5.0 0.00 0.00 0.00 59 1015.9
20260901061959 86 277 2.0 3.0 0.00 0.00 0.00 59 1015.8
20260901061455 86 249 0.0 4.0 0.00 0.00 0.00 58 1015.8
20260901060954 87 291 2.0 2.0 0.00 0.00 0.00 58 1015.8
20260901060444 87 314 0.0 3.0 0.00 0.00 0.00 58 1015.6
20260901055943 87 307 1.0 2.0 0.00 0.00 0.00 58 1015.6
20260901055440 87 245 1.0 3.0 0.00 0.00 0.00 57 1015.5
20260901054936 87 297 2.0 3.0 0.00 0.00 0.00 57 1015.3
20260901054434 87 298 2.0 3.0 0.00 0.00 0.00 57 1015.5
20260901053930 87 311 0.0 2.0 0.00 0.00 0.00 56 1015.5
20260901053425 87 237 4.0 5.0 0.00 0.00 0.00 56 1015.4
20260901052920 88 230 0.0 4.0 0.00 0.00 0.00 55 1015.2
20260901052415 88 276 1.0 5.0 0.00 0.00 0.00 55 1015.2
20260901051914 88 307 3.0 5.0 0.00 0.00 0.00 54 1015.2
20260901051409 88 301 1.0 2.0 0.00 0.00 0.00 54 1015.1
20260901050904 88 272 2.0 3.0 0.00 0.00 0.00 54 1015.2
20260901050400 88 251 1.0 1.0 0.00 0.00 0.00 53 1015.1
20260901045859 88 306 2.0 4.0 0.00 0.00 0.00 53 1015.2
20260901045354 87 259 0.0 2.0 0.00 0.00 0.00 54 1015.1
20260901044849 87 293 0.0 1.0 0.00 0.00 0.00 54 1014.9
20260901044346 87 220 0.0 1.0 0.00 0.00 0.00 53 1015.0
20260901043841 87 256 2.0 2.0 0.00 0.00 0.00 53 1015.0
20260901043337 87 264 1.0 2.0 0.00 0.00 0.00 53 1015.0
20260901042837 87 256 2.0 3.0 0.00 0.00 0.00 54 1015.0
20260901042331 86 282 2.0 3.0 0.00 0.00 0.00 54 1014.9
20260901041827 86 247 2.0 2.0 0.00 0.00 0.00 55 1015.0
20260901041322 86 235 0.0 1.0 0.00 0.00 0.00 55 1015.0
20260901040821 86 256 0.0 1.0 0.00 0.00 0.00 55 1014.7
20260901040320 86 242 0.0 1.0 0.00 0.00 0.00 55 1014.9
20260901035820 87 234 0.0 1.0 0.00 0.00 0.00 54 1014.9
20260901035319 87 217 0.0 1.0 0.00 0.00 0.00 54 1014.8
20260901034818 87 225 0.0 1.0 0.00 0.00 0.00 54 1014.9
20260901034314 87 224 0.0 0.0 0.00 0.00 0.00 54 1014.9
20260901033813 87 259 0.0 1.0 0.00 0.00 0.00 54 1014.9
20260901033312 87 224 0.0 1.0 0.00 0.00 0.00 53 1014.9
20260901032811 87 240 0.0 1.0 0.00 0.00 0.00 53 1014.9
20260901032306 88 249 0.0 1.0 0.00 0.00 0.00 52 1014.8
20260901031801 88 236 0.0 1.0 0.00 0.00 0.00 52 1014.8
20260901031257 88 234 1.0 1.0 0.00 0.00 0.00 51 1015.0
20260901030756 88 233 0.0 1.0 0.00 0.00 0.00 51 1014.7
20260901030256 89 247 1.0 1.0 0.00 0.00 0.00 51 1014.7
20260901025751 89 242 0.0 1.0 0.00 0.00 0.00 50 1014.9
20260901025246 89 254 1.0 1.0 0.00 0.00 0.00 50 1014.6
20260901024741 89 258 0.0 1.0 0.00 0.00 0.00 50 1014.6
20260901024240 89 255 0.0 0.0 0.00 0.00 0.00 49 1014.3
20260901023738 90 311 0.0 2.0 0.00 0.00 0.00 49 1014.4
20260901023233 90 230 0.0 1.0 0.00 0.00 0.00 48 1014.4
20260901022729 90 265 0.0 2.0 0.00 0.00 0.00 48 1014.2
20260901022224 90 224 0.0 1.0 0.00 0.00 0.00 48 1014.3
20260901021719 90 228 0.0 1.0 0.00 0.00 0.00 48 1014.1
20260901021215 91 205 0.0 1.0 0.00 0.00 0.00 47 1014.1
20260901020710 91 242 0.0 0.0 0.00 0.00 0.00 47 1014.1
20260901020205 91 243 1.0 1.0 0.00 0.00 0.00 46 1014.0
20260901015705 92 212 0.0 1.0 0.00 0.00 0.00 46 1014.1
20260901015200 92 269 0.0 2.0 0.00 0.00 0.00 46 1014.0
20260901014654 92 228 1.0 1.0 0.00 0.00 0.00 45 1013.9
20260901014151 93 243 0.0 1.0 0.00 0.00 0.00 45 1014.1
20260901013646 93 249 1.0 2.0 0.00 0.00 0.00 44 1013.9
20260901013142 93 272 0.0 1.0 0.00 0.00 0.00 44 1013.8
20260901012637 94 276 2.0 2.0 0.00 0.00 0.00 43 1013.8
20260901012132 94 241 0.0 1.0 0.00 0.00 0.00 43 1013.8
20260901011628 95 274 2.0 3.0 0.00 0.00 0.00 42 1013.9
20260901011127 95 252 1.0 2.0 0.00 0.00 0.00 42 1013.8
20260901010622 95 220 1.0 2.0 0.00 0.00 0.00 41 1013.6
20260901010121 96 294 2.0 2.0 0.00 0.00 0.00 40 1013.8
20260901005620 96 253 2.0 2.0 0.00 0.00 0.00 40 1013.6
20260901005115 96 305 4.0 4.0 0.00 0.00 0.00 39 1013.6
20260901004615 96 278 2.0 2.0 0.00 0.00 0.00 39 1013.4
20260901004110 97 269 0.0 2.0 0.00 0.00 0.00 38 1013.6
20260901003605 98 314 2.0 3.0 0.00 0.00 0.00 37 1013.5
20260901003103 98 316 2.0 2.0 0.00 0.00 0.00 37 1013.6
20260901002558 99 204 0.0 3.0 0.00 0.00 0.00 36 1013.3
20260901002053 99 258 2.0 2.0 0.00 0.00 0.00 36 1013.7
20260901001553 99 313 1.0 6.0 0.00 0.00 0.00 36 1013.5
20260901001048 100 266 3.0 3.0 0.00 0.00 0.00 36 1013.7
20260901000543 100 272 3.0 4.0 0.00 0.00 0.00 35 1013.6
20260901000039 101 273 1.0 3.0 0.00 0.00 0.00 35 1013.6
20260831235532 101 244 2.0 3.0 0.00 0.00 0.00 35 1013.4
20260831235029 101 277 2.0 5.0 0.00 0.00 0.00 35 1013.7
20260831234522 102 293 2.0 4.0 0.00 0.00 0.00 34 1013.6
20260831234018 102 272 0.0 3.0 0.00 0.00 0.00 34 1013.7
20260831233513 102 260 3.0 3.0 0.00 0.00 0.00 35 1013.7
20260831233009 102 306 3.0 4.0 0.00 0.00 0.00 35 1013.6
20260831232504 102 273 2.0 4.0 0.00 0.00 0.00 34 1013.7
20260831231959 102 254 1.0 4.0 0.00 0.00 0.00 35 1013.7
20260831231456 102 272 4.0 6.0 0.00 0.00 0.00 34 1013.4
20260831230951 104 265 2.0 3.0 0.00 0.00 0.00 32 1013.3
20260831230446 103 210 0.0 3.0 0.00 0.00 0.00 33 1013.8
20260831225940 103 295 3.0 5.0 0.00 0.00 0.00 33 1013.6
20260831225436 102 262 3.0 5.0 0.00 0.00 0.00 34 1013.7
20260831224931 103 285 2.0 6.0 0.00 0.00 0.00 33 1013.8
20260831224431 103 254 2.0 4.0 0.00 0.00 0.00 33 1013.7
20260831223926 102 281 2.0 4.0 0.00 0.00 0.00 34 1013.8
20260831223421 103 266 2.0 4.0 0.00 0.00 0.00 34 1013.8
20260831222918 102 282 3.0 6.0 0.00 0.00 0.00 33 1013.6
20260831222413 104 299 4.0 5.0 0.00 0.00 0.00 34 1013.9
20260831221908 104 272 3.0 3.0 0.00 0.00 0.00 34 1013.8
20260831221358 103 274 2.0 5.0 0.00 0.00 0.00 34 1014.0
20260831220853 103 253 2.0 4.0 0.00 0.00 0.00 35 1014.0
20260831220348 100 241 4.0 4.0 0.00 0.00 0.00 36 1014.0
20260831215844 102 257 3.0 5.0 0.00 0.00 0.00 35 1014.0
20260831215339 102 295 3.0 6.0 0.00 0.00 0.00 35 1014.1
20260831214835 102 263 5.0 6.0 0.00 0.00 0.00 35 1014.3
20260831214333 103 276 3.0 5.0 0.00 0.00 0.00 36 1014.4
20260831213828 103 61 2.0 4.0 0.00 0.00 0.00 36 1014.2
20260831213325 101 285 1.0 5.0 0.00 0.00 0.00 37 1014.3
20260831212820 100 310 3.0 4.0 0.00 0.00 0.00 37 1014.3
20260831212316 101 265 2.0 4.0 0.00 0.00 0.00 37 1014.3
20260831211809 102 265 3.0 5.0 0.00 0.00 0.00 36 1014.4
20260831211304 101 296 2.0 2.0 0.00 0.00 0.00 37 1014.7
20260831210804 100 258 2.0 4.0 0.00 0.00 0.00 37 1014.4
20260831210301 99 265 3.0 4.0 0.00 0.00 0.00 38 1014.8
20260831205800 100 244 2.0 4.0 0.00 0.00 0.00 36 1014.7
20260831205256 100 206 2.0 4.0 0.00 0.00 0.00 37 1014.9
20260831204755 100 294 3.0 7.0 0.00 0.00 0.00 37 1014.8
20260831204255 103 313 1.0 5.0 0.00 0.00 0.00 36 1014.8
20260831203754 104 245 2.0 7.0 0.00 0.00 0.00 34 1014.7
20260831203249 103 321 4.0 18.0 0.00 0.00 0.00 34 1014.9
20260831202747 103 276 4.0 6.0 0.00 0.00 0.00 35 1014.9
20260831202242 102 248 2.0 4.0 0.00 0.00 0.00 35 1015.0
20260831201736 102 278 3.0 5.0 0.00 0.00 0.00 34 1015.3
20260831201235 102 264 3.0 4.0 0.00 0.00 0.00 33 1015.2
20260831200731 100 284 3.0 5.0 0.00 0.00 0.00 36 1015.3
20260831200226 100 298 4.0 4.0 0.00 0.00 0.00 38 1015.2
20260831195722 102 258 4.0 6.0 0.00 0.00 0.00 39 1015.5
20260831195217 102 280 3.0 7.0 0.00 0.00 0.00 39 1015.6
20260831194712 100 269 4.0 8.0 0.00 0.00 0.00 39 1015.8
20260831194208 104 282 3.0 7.0 0.00 0.00 0.00 37 1015.6
20260831193707 103 88 1.0 6.0 0.00 0.00 0.00 33 1015.7
20260831193202 102 203 3.0 6.0 0.00 0.00 0.00 35 1015.9
20260831192658 101 235 2.0 4.0 0.00 0.00 0.00 38 1015.9
20260831192153 99 215 0.0 4.0 0.00 0.00 0.00 41 1015.9
20260831191648 99 292 4.0 4.0 0.00 0.00 0.00 41 1016.2
20260831191144 99 239 6.0 8.0 0.00 0.00 0.00 40 1016.0
20260831190639 103 294 2.0 5.0 0.00 0.00 0.00 38 1015.9
20260831190138 101 49 0.0 4.0 0.00 0.00 0.00 39 1016.0
20260831185634 99 278 2.0 4.0 0.00 0.00 0.00 40 1016.0
20260831185130 98 261 4.0 5.0 0.00 0.00 0.00 41 1016.2
20260831184629 101 245 1.0 4.0 0.00 0.00 0.00 39 1016.2
20260831184125 99 281 3.0 4.0 0.00 0.00 0.00 41 1016.3
20260831183619 102 268 1.0 4.0 0.00 0.00 0.00 40 1016.3
20260831183118 102 314 4.0 4.0 0.00 0.00 0.00 39 1016.2
20260831182617 101 259 3.0 4.0 0.00 0.00 0.00 40 1016.6
20260831182113 101 272 4.0 5.0 0.00 0.00 0.00 41 1016.5
20260831181613 100 276 3.0 4.0 0.00 0.00 0.00 41 1016.6
20260831181108 101 325 2.0 4.0 0.00 0.00 0.00 41 1016.7
20260831180603 100 314 0.0 5.0 0.00 0.00 0.00 41 1016.8
20260831180058 99 161 2.0 4.0 0.00 0.00 0.00 42 1017.0
20260831175558 100 245 2.0 4.0 0.00 0.00 0.00 42 1017.3
20260831175055 101 207 0.0 3.0 0.00 0.00 0.00 41 1017.1
20260831174550 100 274 2.0 3.0 0.00 0.00 0.00 43 1017.1
20260831174050 100 266 5.0 5.0 0.00 0.00 0.00 43 1017.2
20260831173548 100 328 4.0 4.0 0.00 0.00 0.00 42 1017.3
20260831173045 100 252 6.0 7.0 0.00 0.00 0.00 43 1017.0
20260831172539 100 273 2.0 4.0 0.00 0.00 0.00 43 1017.3
20260831172034 99 261 4.0 4.0 0.00 0.00 0.00 44 1017.4
20260831171530 97 204 0.0 4.0 0.00 0.00 0.00 45 1017.6
20260831171027 98 299 3.0 5.0 0.00 0.00 0.00 45 1017.9
20260831170522 98 309 2.0 6.0 0.00 0.00 0.00 45 1017.6
20260831170020 97 248 0.0 3.0 0.00 0.00 0.00 45 1017.4
20260831165520 97 324 2.0 5.0 0.00 0.00 0.00 46 1017.8
20260831165017 97 107 2.0 7.0 0.00 0.00 0.00 47 1017.8